Location: Homewood
(41.1836°S, 175.9581°E)
Time: 07:45:45
(UTC+00:00)

SL-16 R/B - Visible Passes

Search period start: 22 July 2024 00:00
Search period end: 01 August 2024 00:00
Orbit: 984 x 1007 km, 99.7° (Epoch: 21 July)

Date Brightness Start Highest point End Pass type
(mag) Time Alt. Az. Time Alt. Az. Time Alt. Az.
22 Jul 4.2 16:48:42 10° S 16:50:33 20° S 16:50:33 20° S visible
23 Jul 4.9 15:35:48 10° SSE 15:36:45 15° SSE 15:36:45 15° SSE visible
23 Jul 4.2 17:19:56 10° S 17:21:51 18° SSW 17:21:51 18° SSW visible
24 Jul 4.5 16:06:23 10° SSE 16:08:03 19° SSE 16:08:03 19° SSE visible
24 Jul 4.3 17:51:39 10° SSW 17:53:09 14° SSW 17:53:09 14° SSW visible
25 Jul 4.2 16:37:15 10° S 16:39:22 22° S 16:39:22 22° S visible
26 Jul 4.9 15:24:36 10° SSE 15:25:35 15° SSE 15:25:35 15° SSE visible
26 Jul 4.0 17:08:22 10° S 17:10:41 21° SSW 17:10:41 21° SSW visible
27 Jul 4.5 15:55:04 10° SSE 15:56:54 20° SSE 15:56:54 20° SSE visible
27 Jul 4.1 17:39:51 10° SSW 17:41:59 17° SSW 17:41:59 17° SSW visible
28 Jul 4.1 16:25:50 10° S 16:28:13 24° S 16:28:13 24° S visible
28 Jul 4.3 18:12:16 10° SSW 18:13:18 11° SW 18:13:18 11° SW visible
29 Jul 5.0 15:13:28 10° SSE 15:14:26 14° SE 15:14:26 14° SE visible
29 Jul 3.9 16:56:51 10° S 16:59:32 24° SSW 16:59:32 24° SSW visible
30 Jul 4.5 15:43:47 10° SSE 15:45:46 21° SSE 15:45:46 21° SSE visible
30 Jul 4.0 17:28:11 10° S 17:30:52 20° SSW 17:30:52 20° SSW visible
31 Jul 4.0 16:14:27 10° SSE 16:17:05 27° SSE 16:17:05 27° SSE visible
31 Jul 4.2 18:00:05 10° SSW 18:02:11 14° SW 18:02:11 14° SW visible
